weather.gov     
National Weather Service

Terminal Aerodrome Forecast
NWS Homepage
This page is being discontinued on March 12, 2014.
The same data is available at this site. Please update your bookmarks.
Thank you, and we apologize for the inconvenience.
Please send an email to SR-SRH.Webmaster@noaa.gov with any concerns.


Current Version
Previous Version:    01  02  03  04  05  06  07  08  09  10  11  12  13  14  15  16  17  18  19  20  21  22  23  24  25  26  27  28  29  30  
   31  
[Printable]
371
FTUS44 KOUN 201740
TAFGAG
TAF
KGAG 201740Z 2018/2118 21012KT P6SM SCT015
      TEMPO 2018/2020 BKN015
     FM210000 17010KT P6SM SCT025
     FM210600 17010KT 3SM BR OVC015
     FM210900 18012KT 1SM BR OVC003
      TEMPO 2110/2114 1/2SM FG OVC002=




371
FTUS44 KOUN 201740
TAFGAG
TAF
KGAG 201740Z 2018/2118 21012KT P6SM SCT015
      TEMPO 2018/2020 BKN015
     FM210000 17010KT P6SM SCT025
     FM210600 17010KT 3SM BR OVC015
     FM210900 18012KT 1SM BR OVC003
      TEMPO 2110/2114 1/2SM FG OVC002=


U.S. Dept. of Commerce
NOAA National Weather Service
1325 East West Highway
Silver Spring, MD 20910
E-mail: w-nws.webmaster@noaa.gov
Page last modified: May 16, 2007
NATIONAL WEATHER SERVICE: for Safety, for Work, for Fun - FOR LIFE